Retour au catalogue

STARLINK-3613

ActifCommunicationsVLEO
NORAD 51810·PAYLOAD·🇺🇸 United States

Lancé Feb 25, 2022 depuis Vandenberg Space Force Base

Loading…

Prochains Passages (prochaines 24 heures)

TLE

FraisSource: CelesTrak SupGP

Époque: Sep 14, 2026, 21:36 UTC

1 51810C 22017AU  26257.90048611 -.00014825  00000+0 -43820-3 0  2576
2 51810  53.1599 189.5842 0001330  93.1133 131.2519 15.34384265    17

Suivez STARLINK-3613 en temps réel avec AllMySat

Download on the App Store